Main page
Satellite images Climate Cyclones Lightning AirportsFAQ Languages Contact Newsletter About
Weather : Europe Africa North America South America Asia Australia-Oceania Others

udon-thani-th, Udon Thani, Udon Thani International Airport

48354

latitude: , longitude: Thailand, elevation: 17-23N m


METAR: VTUD 142200Z 00000KT CAVOK 17/16 Q1018 NOSIG